sat.trackr.live / text

‹ back to catalog

STARLINK-30917

NORAD 58419 · 2023-180T

PAYLOAD ACTIVE UNKNOWN

§ Identity

Operator
Country
US
Launch date
2023-11-22
Launch site
AFETR
Launch vehicle
Mass (kg)
RCS (m²)

Purposes: comms

External: N2YO · Heavens-Above · Gunter

§ Orbital elements

Epoch: 2026-09-19T19:14:17.679264Z

Period
94.27 min
Inclination
43.0001°
Eccentricity
0.0001341
Mean motion
15.27586395 rev/d
Perigee alt
482.1 km
Apogee alt
484.0 km
Semi-major
6,861.2 km
B*
8.1781e-5
RAAN
287.5147°
Arg perigee
234.4496°
Mean anomaly
125.6231°
Rev number
15,858

§ Raw data

STARLINK-309171 58419U 23180T   26262.80159351  .00001989  00000+0  81781-4 0  99962 58419  43.0001 287.5147 0001341 234.4496 125.6231 15.27586395158580

JSON: /api/v1/satellites/58419 · /tle

For live sub-satellite position, see the globe view (requires WebGL).

§ Visibility from observer

Set your observer location to see the next 7 days of passes ≥ 10°. The values pass through the URL so the page stays shareable.

No JS? Fill the form by hand. The geolocation button needs JavaScript.